Regional Weather Roundup
Issued by NWS

Home | Current Version | Previous Version | Graphics & Text | Print | Product List | Glossary On
Versions: 1 2 3 4 5 6 7 8 9 10 11 12 13 14 15 16 17 18 19 20 21 22 23 24 25 26 27 28 29 30 31 32 33 34 35 36 37 38 39 40 41 42 43 44 45 46 47 48 49 50
000
ASUS43 KFSD 281102
RWRSD

WEATHER ROUNDUP FOR SOUTH DAKOTA
NATIONAL WEATHER SERVICE SIOUX FALLS SD
600 AM CDT FRI AUG 28 2015

NOTE: "FAIR" INDICATES FEW OR NO CLOUDS BELOW 12,000 FEET WITH NO
SIGNIFICANT WEATHER AND/OR OBSTRUCTIONS TO VISIBILITY.


SDZ001>005-009-010-012>017-281200-
NORTHWEST AND NORTH CENTRAL SOUTH DAKOTA

CITY           SKY/WX    TMP DP  RH WIND       PRES   REMARKS
BUFFALO          N/A     59  54  83 W7        29.92R
FAITH            N/A     60  57  89 S6        29.96S
MOBRIDGE       CLOUDY    66  66 100 CALM      29.91F
$$

SDZ012>016-024>037-041>051-057-063-072>074-281200-
SOUTHWEST AND SOUTH CENTRAL SOUTH DAKOTA

CITY           SKY/WX    TMP DP  RH WIND       PRES   REMARKS
RAPID CTY ARPT CLEAR     57  54  89 NE5       29.99S
PIERRE         CLOUDY    68  66  93 CALM      29.91S
CUSTER         CLEAR     55  46  71 NW3       30.14S
ELLSWORTH AFB  CLEAR     62  55  78 N2        29.99R
PHILIP         FOG       59  59 100 CALM      29.95F VSB 1/4
PINE RIDGE     CLEAR     49  47  93 CALM      30.01S
WINNER         CLOUDY    67  65  93 NE10      29.91R FOG
$$

SDZ004>011-016>023-039-040-281200-
NORTHEAST SOUTH DAKOTA

CITY           SKY/WX    TMP DP  RH WIND       PRES   REMARKS
ABERDEEN       CLOUDY    62  61  96 CALM      29.93S FOG
WATERTOWN      CLOUDY    65  62  90 SE5       29.94F
BROOKINGS      CLOUDY    64  61  88 SE7       29.96S
$$

SDZ017-020-022-023-036>040-048>070-281200-
SOUTHEAST SOUTH DAKOTA

CITY           SKY/WX    TMP DP  RH WIND       PRES   REMARKS
SIOUX FALLS    CLOUDY    64  62  93 E8        29.90F
HURON          CLOUDY    66  64  93 NE5       29.91F
CHAMBERLAIN    CLOUDY    65  65 100 E6        29.91R
MITCHELL       CLOUDY    66  65  96 N3        29.90R
YANKTON        CLOUDY    64  63  94 E10       29.84R
$$

ABBREVIATIONS USED IN REMARKS
   TC - TEMPERATURE IN CELSIUS
  WCI - WIND CHILL INDEX
   HX - HEAT INDEX
  VSB - VISIBILITY



USA.gov is the U.S. government's official web portal to all federal, state and local government web resources and services.